Home   Weather   Kobe   Past weeks

Flag for Japan Past Weather in Kobe, Japan — Yesterday and Last 2 Weeks

Now
50 °F

Partly sunny.


Feels Like: 46 °F
Forecast: 38 / 51 °F
Wind: 9 mph from Southwest

Location: Osaka International Airport

Current Time: Feb 25, 2017 at 3:59:11 pm

Latest Report: Feb 25, 2017 at 3:00 pm


Visibility: N/A

Pressure: 30.04 "Hg

Humidity: 35%

Dew Point: 23 °F

Location of KobeLocation

Past Weather in Kobe — Graph

°F

Kobe Temperature Yesterday

Maximum temperature yesterday: 46 °F (at 3:00 pm)
Minimum temperature yesterday: 37 °F (at 5:00 am)
Average temperature yesterday: 42 °F

High & Low Weather Summary for the Past Weeks

 TemperatureHumidityPressure
High59 °F (Feb 20, 11:00 am)100% (Feb 17, 1:00 pm)30.45 "Hg (Feb 17, 1:00 pm)
Low28 °F (Feb 12, 7:00 am)26% (Feb 10, 4:00 pm)29.50 "Hg (Feb 20, 2:00 pm)
Average44 °F60%30.07 "Hg
* Reported Feb 10 2:00 pm — Feb 25 2:00 pm, Kobe, Weather by CustomWeather, © 2017

Note: Actual official high and low records may vary slightly from our data, if they occured in-between our weather recording intervals... More about our weather records

Advertising

Kobe Weather History for the Previous 24 Hours

Scroll right to see more
 ConditionsComfort  
Time TempWeatherWind HumidityBarometerVisibility
2:00 pm
Sat, Feb 25
50 °FPartly sunny.10 mph37%30.04 "HgN/A
1:48 pm48 °FPartly sunny.12 mph40%30.07 "HgN/A
1:00 pm50 °FScattered clouds.8 mph32%30.07 "HgN/A
12:00 pm48 °FScattered clouds.8 mph40%30.09 "HgN/A
11:00 am48 °FPassing clouds.7 mph37%30.12 "HgN/A
10:00 am46 °FPassing clouds.2 mph46%30.12 "HgN/A
9:00 am41 °FPassing clouds.3 mph57%30.15 "HgN/A
8:00 am37 °FPassing clouds.1 mph70%30.15 "HgN/A
7:00 am32 °FPassing clouds.1 mph87%30.15 "HgN/A
6:00 am32 °FPassing clouds.2 mph80%30.12 "HgN/A
5:00 am32 °FPassing clouds.2 mph80%30.12 "HgN/A
8:00 pm
Fri, Feb 24
39 °FPassing clouds.2 mph61%30.09 "HgN/A
7:00 pm41 °FPassing clouds.3 mph53%30.09 "HgN/A
6:00 pm43 °FPassing clouds.8 mph46%30.07 "HgN/A
5:00 pm45 °FPassing clouds.8 mph39%30.04 "HgN/A
4:00 pm45 °FScattered clouds.9 mph42%30.04 "HgN/A
3:00 pm46 °FBroken clouds.9 mph43%30.04 "HgN/A
Weather by CustomWeather, © 2017

See weather overviewHow to use our weather pages